Location: Newark
(0.5333°S, 166.9167°E)
Time: 16:06:33
(UTC+00:00)

N. Korean satellite - Visible Passes

Search period start: 15 October 2019 00:00
Search period end: 25 October 2019 00:00
Orbit: 455 x 508 km, 97.2° (Epoch: 14 October)

Date Brightness Start Highest point End Pass type
(mag) Time Alt. Az. Time Alt. Az. Time Alt. Az.
15 Oct 8.0 18:08:40 10° NNE 18:12:10 45° E 18:15:44 10° S visible
16 Oct 9.9 17:44:26 10° ENE 17:46:59 18° ESE 17:49:32 10° SE visible
17 Oct 9.9 07:04:58 10° SW 07:07:23 18° WSW 07:09:47 10° WNW visible
19 Oct 8.7 18:01:05 10° NE 18:04:26 34° E 18:07:50 10° SSE visible
20 Oct 10.3 17:37:17 10° ENE 17:39:14 14° ESE 17:41:11 10° SE visible
23 Oct 9.3 17:53:32 10° NE 17:56:39 26° E 17:59:47 10° SSE visible
24 Oct 10.3 07:15:33 10° SW 07:16:58 12° WSW 07:18:24 10° WNW visible
24 Oct 10.6 17:30:44 10° E 17:31:26 10° ESE 17:32:08 10° ESE visible
